Weather History for Gillette, WY

Change the Weather History Date:

Thursday, November 21, 2013

  Actual Average Record
Temperature  
Mean Temperature 14 °F 30 °F  
Max Temperature 20 °F 41 °F 67 °F (2012)
Min Temperature 7 °F 19 °F -16 °F (1929)
Degree Days  
Heating Degree Days 51 35  
Month to date heating degree days 602 631  
Since 1 July heating degree days 1420 1540  
Cooling Degree Days 0 0  
Month to date cooling degree days 0 0  
Year to date cooling degree days 615 502  
Moisture  
Dew Point 4 °F    
Average Humidity 69    
Maximum Humidity 88    
Minimum Humidity 49    
Precipitation  
Precipitation T in 0.01 in 0.60 in (1952)
Month to date precipitation 0.04 0.41  
Year to date precipitation 18.60 13.35  
Sea Level Pressure  
Sea Level Pressure 30.58 in    
Wind  
Wind Speed 8 mph (WNW)    
Max Wind Speed 20 mph    
Max Gust Speed 23 mph    
Visibility 10 miles    
Events      
T = Trace of Precipitation, MM = Missing Value Source: NWS Daily Summary

Daily Weather History Graph

Daily Weather History Graph

Search for Another Location

Airport:

Trip Planner

Search our weather history database for the weather conditions in past years. The results will help you decide how hot, cold, wet, or windy it might be!

Date:

Astronomy

Nov. 21, 2013 Rise Set
Actual Time 7:06 AM MST 4:29 PM MST
Civil Twilight 6:34 AM MST 5:01 PM MST
Nautical Twilight 5:58 AM MST 5:37 PM MST
Astronomical Twilight 5:24 AM MST 6:11 PM MST
Moon 8:10 PM MST (11/21) 10:13 AM MST (11/21)
Length of Visible Light 10h 27m
Length of Day
9h 23m
Waning Gibbous, 85% of the Moon is Illuminated
Nov 21
Waning Gibbous
Nov 25
Last Quarter
Dec 2
New
Dec 9
First Quarter
Dec 17
Full

Hourly Weather History & Observations

Time (MST) Temp. Windchill Dew Point Humidity Pressure Visibility Wind Dir Wind Speed Gust Speed Precip Events Conditions
12:01 AM 6.8 °F -11.3 °F 1.4 °F 79% 30.27 in 10.0 mi NNW 16.1 mph - N/A   Overcast
12:53 AM 7.0 °F -9.8 °F 1.9 °F 80% 30.46 in 10.0 mi NNW 13.8 mph - N/A   Overcast
1:36 AM 6.8 °F -9.3 °F 3.2 °F 85% 30.29 in 6.0 mi North 12.7 mph - 0.00 in   Overcast
1:53 AM 7.0 °F -7.5 °F 1.9 °F 80% 30.48 in 10.0 mi North 10.4 mph - 0.00 in   Overcast
2:53 AM 7.0 °F -4.5 °F 3.0 °F 84% 30.50 in 8.0 mi North 6.9 mph - N/A   Overcast
3:12 AM 6.8 °F -4.8 °F 1.4 °F 79% 30.30 in 9.0 mi NNW 6.9 mph - N/A   Overcast
3:53 AM 7.0 °F -3.3 °F 1.9 °F 80% 30.51 in 10.0 mi NNW 5.8 mph - N/A   Overcast
4:53 AM 7.0 °F -3.3 °F 3.0 °F 84% 30.54 in 10.0 mi NW 5.8 mph - N/A   Overcast
5:53 AM 8.1 °F -3.2 °F 1.9 °F 76% 30.57 in 10.0 mi NNW 6.9 mph - N/A   Overcast
6:53 AM 8.1 °F -2.0 °F 3.0 °F 80% 30.59 in 10.0 mi NNW 5.8 mph - N/A   Overcast
7:53 AM 8.1 °F -0.5 °F 1.9 °F 76% 30.62 in 10.0 mi NW 4.6 mph - N/A   Overcast
8:53 AM 10.0 °F 3.6 °F 3.0 °F 73% 30.64 in 10.0 mi NNW 3.5 mph - N/A   Overcast
9:53 AM 12.0 °F - 3.9 °F 70% 30.66 in 10.0 mi Calm Calm - N/A   Mostly Cloudy
10:53 AM 14.0 °F - 5.0 °F 67% 30.66 in 10.0 mi Calm Calm - N/A   Partly Cloudy
11:53 AM 16.0 °F 10.4 °F 5.0 °F 62% 30.65 in 10.0 mi Variable 3.5 mph - N/A   Scattered Clouds
12:53 PM 18.0 °F 11.1 °F 3.9 °F 54% 30.63 in 10.0 mi WNW 4.6 mph - N/A   Partly Cloudy
1:53 PM 19.0 °F 12.3 °F 3.9 °F 52% 30.63 in 10.0 mi West 4.6 mph - N/A   Clear
2:53 PM 19.0 °F 11.1 °F 3.0 °F 50% 30.64 in 10.0 mi West 5.8 mph - N/A   Clear
3:53 PM 18.0 °F 7.7 °F 3.9 °F 54% 30.66 in 10.0 mi West 8.1 mph - N/A   Clear
4:53 PM 12.0 °F 4.1 °F 3.9 °F 70% 30.69 in 10.0 mi SW 4.6 mph - N/A   Clear
5:53 PM 12.9 °F -0.2 °F 6.1 °F 74% 30.69 in 10.0 mi SSW 10.4 mph - N/A   Clear
6:53 PM 12.0 °F -4.0 °F 5.0 °F 73% 30.71 in 10.0 mi WSW 15.0 mph - N/A   Clear
7:53 PM 12.0 °F -4.5 °F 5.0 °F 73% 30.70 in 10.0 mi SW 16.1 mph - N/A   Clear
8:53 PM 14.0 °F -0.8 °F 6.1 °F 71% 30.69 in 10.0 mi SW 13.8 mph - N/A   Clear
9:53 PM 14.0 °F -1.4 °F 6.1 °F 71% 30.67 in 10.0 mi SW 15.0 mph - N/A   Clear
10:53 PM 15.1 °F -1.1 °F 5.0 °F 64% 30.65 in 10.0 mi SW 17.3 mph - N/A   Clear
11:53 PM 15.1 °F -1.1 °F 3.9 °F 61% 30.63 in 10.0 mi SW 17.3 mph - N/A   Clear